Location: Izdebno
(52.6670°N, 16.2170°E)
Time: 15:04:16
(UTC+01:00)

Vanguard 2 - Pass Details

Date: 08 February 2023
Orbit: 553 x 2927 km, 32.9° (Epoch: 24 March)

Event Time Altitude Azimuth Distance (km) Brightness Sun altitude
Rises 19:03:09 0° 196° (SSW) 4,575 11.7 -19.9°
Reaches altitude 10° 19:07:20 10° 178° (S) 4,018 11.1 -20.6°
Maximum altitude 19:13:49 17° 142° (SE) 4,019 10.8 -21.5°
Enters shadow 19:15:42 17° 132° (SE) 4,206 10.8 -21.8°
Drops below altitude 10° 19:21:54 10° 108° (ESE) 5,191 - -22.8°
Sets 19:28:34 0° 93° (E) 6,544 - -23.8°
